Content
SEND FEEDBACK

Daily
Averages
Monthly
Summary
United States of America

BARTLEY, NEBRASKA


Home > North America > United States > Nebraska
Elevation: 2420 feet     Latitude: 40 23N     Longitude: 100 13W

WEATHER
 
SELECT A DAY
Number of Records: 183,675;   Date Range: 1/1/95 - 8/12/14
 
SHARE

PRINT THIS DATA

[ ← Previous Day ]
WEATHER ALMANAC - JANUARY 31, 2013
[ Next Day → ]
[ °C ]   °F
Weather ElementAverageHighLow
Temperature24.2 °F33.1 °F (4:53 am)18 °F (6:53 pm)
Dewpoint12.6 °F23 °F (3:53 am)5 °F (12:53 pm)
Humidity61.7 %81 % (6:53 am)46 % (1:53 pm)
Barometer30.23 in30.40 in (9:53 pm)29.97 in (1:53 am)
Wind Speed10.1 mph17.3 mph (4:53 am)
Wind Gust21.9 mph (12:53 pm)
Weather ElementAverage
Visibility10 mi
Wind DirectionSSW (206.5 °)

Weather ElementTotal
Precipitation---
Heating Degree Days39.5 (Base 65)
Averaged from 23 records on January 31, 2013
WEATHER CONDITIONS BREAKOUT
WIND DIRECTION BREAKOUT
WEATHER BY HOUR - JANUARY 31, 2013
[ °C ]   °F
Local TimeTemperatureDewpointHumidityBarometerVisibilityWind DirectionWind SpeedGust SpeedPrecipitationEventsConditions
1:53 AM30.0 °F21.9 °F72 %29.97 in10.0 miWest (280°)10.4 mphScattered Clouds
2:53 AM32.0 °F21.9 °F66 %29.97 in10.0 miWest (270°)10.4 mphOvercast
3:53 AM32.0 °F23.0 °F69 %29.97 in10.0 miWNW (290°)8.1 mphOvercast
4:53 AM33.1 °F23.0 °F66 %29.98 in10.0 miNW (320°)17.3 mphOvercast
5:53 AM33.1 °F23.0 °F66 %30.01 in10.0 miNNW (330°)10.4 mphOvercast
6:53 AM25.0 °F19.9 °F81 %30.08 in10.0 miENE (60°)9.2 mphOvercast
7:53 AM24.1 °F17.1 °F75 %30.12 in10.0 miCalmOvercast
8:53 AM25.0 °F16.0 °F69 %30.19 in10.0 miNNE (20°)11.5 mphOvercast
9:53 AM25.0 °F15.1 °F66 %30.25 in10.0 miNorth (10°)16.1 mphOvercast
10:53 AM23.0 °F10.0 °F58 %30.32 in10.0 miNorth (360°)17.3 mphOvercast
11:53 AM21.9 °F7.0 °F53 %30.35 in10.0 miNorth (360°)16.1 mphOvercast
12:53 PM21.9 °F5.0 °F48 %30.35 in10.0 miNorth (350°)13.8 mph21.9 mphOvercast
1:53 PM23.0 °F5.0 °F46 %30.34 in10.0 miNNW (340°)17.3 mph21.9 mphOvercast
2:53 PM23.0 °F5.0 °F46 %30.32 in10.0 miNNW (340°)12.7 mph21.9 mphOvercast
3:53 PM24.1 °F7.0 °F48 %30.32 in10.0 miNNW (330°)12.7 mph21.9 mphPartly Cloudy
4:53 PM24.1 °F7.0 °F48 %30.32 in10.0 miNNW (340°)10.4 mphOvercast
5:53 PM21.2 °F6.8 °F54 %30.23 in10.0 miNorth (10°)8.1 mphPartly Cloudy
6:53 PM18.0 °F8.1 °F65 %30.35 in10.0 miENE (60°)4.6 mphScattered Clouds
7:53 PM19.0 °F9.0 °F65 %30.37 in10.0 miEast (100°)4.6 mphOvercast
8:53 PM19.9 °F8.1 °F60 %30.38 in10.0 miSSE (150°)4.6 mphOvercast
9:53 PM19.9 °F8.1 °F60 %30.40 in10.0 miSSE (150°)8.1 mphOvercast
10:53 PM19.9 °F10.0 °F65 %30.38 in10.0 miSSE (150°)5.8 mphOvercast
11:53 PM19.4 °F12.2 °F74 %30.25 in10.0 miSE (130°)3.5 mphOvercast
Hourly data recorded from KMCK, located miles away from Bartley, Nebraska







STORIES FROM OUR PARTNERS